Location: ??
(35.5052°N, 139.7262°E)
Time: 06:11:22
(UTC+00:00)

Envisat - Pass Details

Date: 05 October 2021
Orbit: 764 x 766 km, 98.2° (Epoch: 23 October)

Event Time Altitude Azimuth Distance (km) Brightness Sun altitude
Rises 19:29:02 0° 17° (NNE) 3,235 6.5 -15.2°
Reaches altitude 10° 19:31:23 10° 21° (NNE) 2,305 5.8 -14.7°
Maximum altitude 19:36:23 58° 101° (E) 884 3.7 -13.7°
Drops below altitude 10° 19:41:21 10° 180° (S) 2,290 5.4 -12.7°
Sets 19:43:41 0° 184° (S) 3,212 6.2 -12.2°
